EW6920 Weather Reports


Display with metric or nautical units.
time (UTC)temp
F
wind
direction
speed
MPH
gust
MPH
rain 1hr
in
rain 24hr
in
rain mn
in
humidity
%
barometer
mb
20260506061544 33 315 2.0 6.0 0.00 0.00 0.00 69 1009.6
20260506044542 34 311 1.0 5.0 0.00 0.00 0.00 70 1009.0
20260506043044 34 0 0.0 3.0 0.00 0.00 0.00 71 1009.0
20260506041557 33 0 0.0 4.0 0.00 0.00 0.00 71 1008.9
20260506040045 33 0 2.0 5.0 0.00 0.00 0.00 74 1009.0
20260506034545 33 301 0.0 4.0 0.00 0.00 0.00 74 1009.1
20260506033055 32 0 0.0 0.0 0.00 0.00 0.00 74 1009.0
20260506031547 32 0 0.0 3.0 0.00 0.00 0.00 77 1008.9
20260506030045 32 0 0.0 0.0 0.00 0.00 0.00 76 1009.1
20260506024547 31 0 0.0 0.0 0.00 0.00 0.00 75 1009.0
20260506023043 31 0 0.0 0.0 0.00 0.00 0.00 74 1008.8
20260506021554 31 0 0.0 0.0 0.00 0.00 0.00 75 1008.6
20260506020046 31 0 0.0 0.0 0.00 0.00 0.00 72 1008.6
20260506014551 32 0 0.0 0.0 0.00 0.00 0.00 69 1008.4
20260506013044 33 0 0.0 0.0 0.00 0.00 0.00 68 1008.2
20260506011549 34 0 0.0 0.0 0.00 0.00 0.00 66 1008.1
20260506010040 35 0 0.0 2.0 0.00 0.00 0.00 65 1007.8
20260506004547 36 36 1.0 6.0 0.00 0.00 0.00 63 1007.8
20260506003046 36 0 0.0 3.0 0.00 0.00 0.00 62 1007.8
20260506001606 37 360 1.0 5.0 0.00 0.00 0.00 61 1007.8
20260506000048 37 319 0.0 4.0 0.00 0.00 0.00 60 1007.7
20260505234549 37 306 1.0 7.0 0.00 0.00 0.00 60 1007.7
20260505233053 38 298 4.0 9.0 0.00 0.00 0.00 59 1007.7
20260505231552 38 290 3.0 8.0 0.00 0.00 0.00 60 1007.5
20260505230045 39 295 7.0 13.0 0.00 0.00 0.00 61 1007.5
20260505224547 38 288 1.0 14.0 0.00 0.00 0.00 59 1007.5
20260505223043 39 323 6.0 11.0 0.00 0.00 0.00 58 1007.5
20260505221550 39 304 7.0 11.0 0.00 0.00 0.00 58 1007.4
20260505220047 39 324 5.0 12.0 0.00 0.00 0.00 55 1007.4
20260505214600 40 301 9.0 19.0 0.00 0.00 0.00 58 1007.2
20260505213056 40 328 9.0 17.0 0.00 0.00 0.00 59 1007.0
20260505211547 40 299 12.0 19.0 0.00 0.00 0.00 56 1007.1
20260505210049 40 313 10.0 18.0 0.00 0.00 0.00 56 1006.9
20260505204544 40 294 12.0 19.0 0.00 0.00 0.00 55 1007.0
20260505203047 40 305 9.0 20.0 0.00 0.00 0.00 56 1006.7
20260505201554 40 312 9.0 22.0 0.00 0.00 0.00 60 1006.9
20260505200046 39 267 13.0 20.0 0.00 0.00 0.00 59 1006.8
20260505194545 40 274 13.0 21.0 0.00 0.00 0.00 58 1006.6
20260505193049 40 268 11.0 19.0 0.00 0.00 0.00 55 1006.6
20260505191551 40 265 13.0 22.0 0.00 0.00 0.00 59 1006.6
20260505190104 40 311 11.0 20.0 0.00 0.00 0.00 58 1006.6
20260505184559 40 257 13.0 20.0 0.00 0.00 0.00 61 1006.3
20260505183051 39 327 14.0 22.0 0.00 0.00 0.00 61 1006.2
20260505181545 40 284 10.0 21.0 0.00 0.00 0.00 56 1006.0
20260505180046 39 287 10.0 17.0 0.00 0.00 0.00 65 1006.0
20260505174548 39 317 11.0 21.0 0.00 0.00 0.00 61 1006.1
20260505173046 38 279 14.0 20.0 0.00 0.00 0.00 66 1005.9
20260505171545 38 292 9.0 19.0 0.00 0.00 0.00 64 1005.7
20260505170046 38 306 12.0 23.0 0.00 0.00 0.00 59 1005.6
20260505164546 38 298 11.0 20.0 0.00 0.00 0.00 63 1005.5
20260505163046 38 317 12.0 18.0 0.00 0.00 0.00 58 1005.3
20260505161545 39 283 11.0 20.0 0.00 0.00 0.00 60 1005.0
20260505153059 40 332 8.0 16.0 0.00 0.00 0.00 62 1004.6
20260505151545 39 280 7.0 19.0 0.00 0.00 0.00 60 1004.5
20260505124545 35 311 4.0 10.0 0.00 0.00 0.00 74 1003.0
20260505123105 34 328 4.0 10.0 0.00 0.00 0.00 75 1002.9
20260505121549 34 293 4.0 12.0 0.00 0.00 0.00 75 1003.0
20260505120052 34 319 5.0 12.0 0.00 0.00 0.00 76 1003.0
20260505114553 34 267 5.0 12.0 0.00 0.00 0.00 76 1002.7
20260505113050 34 313 8.0 16.0 0.00 0.00 0.00 75 1002.6
20260505111551 34 315 6.0 14.0 0.00 0.00 0.00 73 1002.2
20260505101548 36 329 8.0 14.0 0.00 0.00 0.00 71 1001.6
20260505100047 36 315 9.0 14.0 0.00 0.00 0.00 74 1001.3
20260505094548 36 278 8.0 16.0 0.00 0.00 0.00 72 1001.4
20260505093048 36 296 8.0 17.0 0.00 0.00 0.00 71 1001.1
20260505091549 37 296 10.0 13.0 0.00 0.00 0.00 73 1001.1
20260505090053 36 315 5.0 11.0 0.00 0.00 0.00 73 1000.9
20260505084544 37 324 3.0 9.0 0.00 0.00 0.00 73 1000.7
20260505083106 37 315 4.0 8.0 0.00 0.00 0.00 74 1000.8
20260505081549 37 302 2.0 8.0 0.00 0.00 0.00 72 1000.7
20260505080053 37 309 6.0 10.0 0.00 0.00 0.00 73 1000.8
20260505074545 37 344 4.0 10.0 0.00 0.00 0.00 72 1000.8
20260505073055 37 326 4.0 13.0 0.00 0.00 0.00 71 1000.9
20260505071540 37 337 5.0 15.0 0.00 0.00 0.00 70 1000.9